Location: Carabito
(9.8355°N, 67.9249°W)
Time: 01:38:44
(UTC+00:00)

Cosmos 332 Rocket - Pass Details

Date: 23 May 2024
Orbit: 676 x 699 km, 74.0° (Epoch: 12 June)

Event Time Altitude Azimuth Distance (km) Brightness Sun altitude
Exits shadow 08:15:59 71° 124° (SE) 724 3.8 -26.3°
Maximum altitude 08:16:11 72° 102° (ESE) 719 3.8 -26.3°
Drops below altitude 10° 08:20:58 10° 18° (NNE) 2,131 6.9 -25.2°
Sets 08:23:17 0° 16° (NNE) 3,050 7.8 -24.7°
